Location: St. Louis
(38.6270°N, 90.1994°W)
Time: 01:55:37
(UTC-06:00)

Courier 1B Rocket - Pass Details

Date: 05 December 2021
Orbit: 920 x 1202 km, 28.2° (Epoch: 16 January)

Event Time Altitude Azimuth Distance (km) Brightness Sun altitude
Rises 01:14:57 0° 258° (WSW) 3,577 - -65.9°
Reaches altitude 10° 01:17:56 10° 247° (WSW) 2,615 - -65.4°
Maximum altitude 01:23:08 28° 190° (S) 1,641 - -64.6°
Drops below altitude 10° 01:28:21 10° 133° (SE) 2,616 - -63.7°
Sets 01:31:20 0° 122° (ESE) 3,580 - -63.2°
